Regional Weather Roundup
Issued by NWS Midland/Odessa, TX

Skip options and go directly to product.
Home | Oldest Version | Previous Version | Current Version | All | Text Only | Save Text | Print | Product List | Glossary On

Skip product version selection by date and time.   
483
ASUS44 KMAF 191210
RWRMAF
MIDLAND AREA WEATHER ROUNDUP
NATIONAL WEATHER SERVICE MIDLAND TX
700 AM CDT SUN APR 19 2015

...IN SOUTHWEST TEXAS AND SOUTHEAST NEW MEXICO...

CITY           SKY/WX    TMP DP  RH WIND       PRES   REMARKS
ALPINE         CLEAR     62  19  19 W17G29    30.02S
ANDREWS        FAIR      54  31  41 N8        29.87R
ARTESIA        CLEAR     48  34  57 N9G18     29.93R
BIG SPRING     CLEAR     54  33  45 W5        29.86R
CARLSBAD       CLEAR     50  33  52 W9        29.88R
DRYDEN           N/A     58  31  35 W9        29.84R
FORT STOCKTON  CLEAR     54  27  35 W8        29.92R
GUAD PASS      CLEAR     50  24  36 SW10      29.99R
HOBBS          CLEAR     46  34  61 NW10      29.90R
MARFA          CLEAR     37  25  60 W10       30.01S WCI  30
MIDLAND AIRPK  CLEAR     55  33  44 NW7       29.87R
MIDLAND INTL   CLEAR     51  34  52 NW9       29.86R
ODESSA         CLEAR     51  32  48 NW8       29.87R
PECOS          CLEAR     49  27  42 W7        29.90R
PRESIDIO       FAIR      55  24  30 N7        29.93S
SEMINOLE       CLEAR     48  34  58 NW12      29.89R
SNYDER         CLEAR    N/A N/A N/A W12       29.80R
WINK           CLEAR     48  27  44 N6        29.86R
$$
...OTHER STATIONS IN TEXAS...

CITY           SKY/WX    TMP DP  RH WIND       PRES   REMARKS
ABILENE        CLEAR     53  48  83 SW6       29.75R
AMARILLO       CLEAR     42  35  76 W10       29.89R WCI  36
AUSTIN         DRIZZLE   62  62 100 S6        29.79S FOG
BROWNSVILLE    FOG       69  68  96 CALM      29.77R VSB 1/4
CORPUS CHRISTI MOCLDY    69  67  93 E7        29.81S
DALLAS FTW     MOCLDY    57  55  93 S9        29.71F
DEL RIO        CLOUDY    65  64  97 CALM      29.81R FOG
EL PASO        PTCLDY    60  19  20 CALM      29.94R
HOUSTON INT    PTCLDY    58  57  97 CALM      29.81R
LUBBOCK        PTCLDY    47  36  65 N14       29.84R
SAN ANGELO     CLEAR     55  54  96 SW7       29.81R
SAN ANTONIO    DRZL/FOG  68  66  93 S7        29.82S VSB 1/8
WACO           CLEAR     59  58  96 S7        29.75R
WICHITA FALLS  NOT AVBL
$$
...OTHER LOCATIONS IN NEW MEXICO...

CITY           SKY/WX    TMP DP  RH WIND       PRES   REMARKS
ALAMAGORDO     CLEAR     46  28  49 NE10      29.97S
ALBUQUERQUE    PTCLDY    47  32  56 NW8       30.02R
CANNON AFB     NOT AVBL
CLOVIS         CLEAR     41  27  56 N15       29.93R WCI  33
HOLLOMAN AFB   NOT AVBL
ROSWELL        CLEAR     47  29  49 VRB3      29.93R
RUIDOSO        CLEAR     43  19  39 NW12G18   30.05R WCI  37
SANTA FE       CLEAR     37  28  70 N10       29.99R WCI  30
TRUTH OR CONSE CLEAR     51  22  31 NW16      29.98S
TUCUMCARI      CLEAR     42  28  57 N8        29.94R WCI  37
$$

USA.gov is the U.S. government's official web portal to all federal, state and local government web resources and services.